Alma, MI

5:15 PM EDT on August 27, 2016 (GMT -0400)
Gratiot Community

Weather History for KAMN - April, 2014

Change the Weather History Date:

Tuesday, April 8, 2014

  Actual Average Record
Temperature  
Mean Temperature 48 °F -  
Max Temperature 60 °F 54 °F 82 °F (1991)
Min Temperature 35 °F 30 °F 8 °F (1982)
Degree Days  
Heating Degree Days 18    
Moisture  
Dew Point 28 °F    
Average Humidity 48    
Maximum Humidity 69    
Minimum Humidity 28    
Precipitation  
Precipitation 0.00 in - - ()
Sea Level Pressure  
Sea Level Pressure 29.65 in    
Wind  
Wind Speed 8 mph (NW)    
Max Wind Speed 17 mph    
Max Gust Speed 25 mph    
Visibility 10 miles    
Events      
Averages and records for this station are not official NWS values.
T = Trace of Precipitation, MM = Missing Value Source: NWS Daily Summary

Daily Weather History Graph

Daily Weather History Graph

Search for Another Location

Airport or City:

Trip Planner

Search our weather history database for the weather conditions in past years. The results will help you decide how hot, cold, wet, or windy it might be!

Date:

Astronomy

Apr. 08, 2014 Rise Set
Actual Time 7:08 AM EDT 8:13 PM EDT
Civil Twilight 6:39 AM EDT 8:42 PM EDT
Nautical Twilight 6:04 AM EDT 9:17 PM EDT
Astronomical Twilight 5:27 AM EDT 9:54 PM EDT
Moon 1:56 PM EDT (4/8) 3:30 AM EDT (4/8)
Length of Visible Light 14h 03m
Length of Day
13h 05m
Waxing Gibbous, 62% of the Moon is Illuminated
Apr 8
Waxing Gibbous
Apr 15
Full
Apr 22
Last Quarter
Apr 29
New
May 6
First Quarter

Hourly Weather History & Observations

Time (EDT) Temp. Windchill Dew Point Humidity Pressure Visibility Wind Dir Wind Speed Gust Speed Precip Events Conditions
12:12 AM 39.4 °F 35.2 °F 26.8 °F 61% 29.55 in 10.0 mi NNW 5.8 mph - N/A   Overcast
12:32 AM 40.1 °F 36.9 °F 26.2 °F 58% 29.55 in 10.0 mi NNW 4.6 mph - N/A   Overcast
12:52 AM 40.8 °F 36.9 °F 25.7 °F 55% 29.55 in 10.0 mi NNW 5.8 mph - N/A   Overcast
1:12 AM 41.0 °F 36.4 °F 25.9 °F 55% 29.54 in 10.0 mi NW 6.9 mph - N/A   Overcast
1:32 AM 41.0 °F 36.4 °F 25.7 °F 55% 29.53 in 10.0 mi NW 6.9 mph - N/A   Overcast
1:52 AM 40.8 °F 36.2 °F 26.1 °F 56% 29.53 in 10.0 mi NW 6.9 mph - N/A   Mostly Cloudy
2:12 AM 40.5 °F 36.5 °F 26.1 °F 57% 29.53 in 10.0 mi NW 5.8 mph - N/A   Mostly Cloudy
2:32 AM 40.6 °F 36.7 °F 25.7 °F 55% 29.53 in 10.0 mi NW 5.8 mph - N/A   Mostly Cloudy
2:53 AM 41.0 °F 35.8 °F 25.5 °F 54% 29.52 in 10.0 mi NW 8.1 mph - N/A   Overcast
3:13 AM 41.0 °F 36.4 °F 25.2 °F 53% 29.52 in 10.0 mi NW 6.9 mph - N/A   Overcast
3:33 AM 41.0 °F 35.8 °F 24.8 °F 53% 29.52 in 10.0 mi NW 8.1 mph - N/A   Mostly Cloudy
3:53 AM 41.0 °F 35.8 °F 24.8 °F 53% 29.52 in 10.0 mi NW 8.1 mph - N/A   Mostly Cloudy
4:13 AM 40.5 °F 35.8 °F 25.2 °F 54% 29.52 in 10.0 mi NW 6.9 mph - N/A   Mostly Cloudy
4:33 AM 40.1 °F 36.1 °F 24.8 °F 54% 29.53 in 10.0 mi NW 5.8 mph - N/A   Mostly Cloudy
4:53 AM 39.2 °F 35.0 °F 24.6 °F 56% 29.53 in 10.0 mi WNW 5.8 mph - N/A   Mostly Cloudy
5:13 AM 36.9 °F 32.2 °F 24.6 °F 61% 29.53 in 10.0 mi WNW 5.8 mph - N/A   Scattered Clouds
5:34 AM 36.9 °F 33.1 °F 24.3 °F 60% 29.55 in 10.0 mi NNW 4.6 mph - N/A   Clear
5:54 AM 37.4 °F 32.8 °F 24.6 °F 60% 29.55 in 10.0 mi NW 5.8 mph - N/A   Clear
6:14 AM 36.0 °F 30.3 °F 24.6 °F 63% 29.55 in 10.0 mi NW 6.9 mph - N/A   Clear
6:34 AM 36.1 °F 30.6 °F 24.8 °F 63% 29.57 in 10.0 mi WNW 6.9 mph - N/A   Clear
6:54 AM 35.6 °F 29.9 °F 25.2 °F 66% 29.57 in 10.0 mi WNW 6.9 mph - N/A   Clear
7:14 AM 36.9 °F 31.4 °F 24.4 °F 61% 29.58 in 10.0 mi NW 6.9 mph - N/A   Clear
7:34 AM 36.7 °F 31.2 °F 25.7 °F 64% 29.59 in 10.0 mi WNW 6.9 mph - N/A   Mostly Cloudy
8:15 AM 40.1 °F 35.3 °F 25.5 °F 56% 29.61 in 10.0 mi WNW 6.9 mph - N/A   Overcast
8:35 AM 40.3 °F 36.3 °F 25.7 °F 56% 29.61 in 10.0 mi NW 5.8 mph - N/A   Overcast
8:50 AM 41.0 °F 35.8 °F 25.9 °F 55% 29.62 in 10.0 mi NW 8.1 mph - N/A   Overcast
9:10 AM 41.4 °F 36.8 °F 25.7 °F 54% 29.62 in 10.0 mi NW 6.9 mph - N/A   Overcast
9:30 AM 43.7 °F 39.1 °F 26.4 °F 51% 29.62 in 10.0 mi NW 8.1 mph - N/A   Overcast
9:50 AM 45.9 °F 42.3 °F 26.2 °F 46% 29.63 in 10.0 mi NNW 6.9 mph - N/A   Scattered Clouds
10:11 AM 48.2 °F - 26.1 °F 42% 29.63 in 10.0 mi NW 10.4 mph - N/A   Scattered Clouds
10:31 AM 49.1 °F - 25.5 °F 40% 29.64 in 10.0 mi NW 6.9 mph - N/A   Scattered Clouds
10:51 AM 49.5 °F - 25.2 °F 39% 29.64 in 10.0 mi NNW 5.8 mph - N/A   Overcast
11:11 AM 50.7 °F - 25.7 °F 38% 29.65 in 10.0 mi West 6.9 mph - N/A   Overcast
11:31 AM 52.0 °F - 29.5 °F 42% 29.66 in 10.0 mi WNW 9.2 mph - N/A   Mostly Cloudy
11:51 AM 53.4 °F - 30.6 °F 42% 29.66 in 10.0 mi WNW 5.8 mph - N/A   Scattered Clouds
12:11 PM 54.7 °F - 31.5 °F 41% 29.66 in 10.0 mi WNW 6.9 mph 16.1 mph N/A   Clear
12:31 PM 55.0 °F - 30.7 °F 40% 29.66 in 10.0 mi NNW 10.4 mph - N/A   Clear
12:52 PM 55.4 °F - 31.1 °F 40% 29.66 in 10.0 mi NW 6.9 mph - N/A   Clear
1:12 PM 57.2 °F - 31.5 °F 38% 29.66 in 10.0 mi WNW 6.9 mph - N/A   Clear
1:32 PM 57.6 °F - 30.0 °F 35% 29.66 in 10.0 mi WNW 11.5 mph 16.1 mph N/A   Clear
1:52 PM 58.5 °F - 30.2 °F 34% 29.66 in 10.0 mi West 12.7 mph 16.1 mph N/A   Scattered Clouds
2:12 PM 59.2 °F - 28.4 °F 31% 29.66 in 10.0 mi NW 11.5 mph 19.6 mph N/A   Scattered Clouds
2:32 PM 58.8 °F - 28.0 °F 31% 29.66 in 10.0 mi NW 10.4 mph 16.1 mph N/A   Clear
2:52 PM 58.8 °F - 28.6 °F 32% 29.66 in 10.0 mi NNW 10.4 mph 21.9 mph N/A   Scattered Clouds
3:13 PM 60.8 °F - 30.4 °F 32% 29.66 in 10.0 mi WNW 13.8 mph 19.6 mph N/A   Overcast
3:33 PM 60.4 °F - 28.0 °F 29% 29.66 in 10.0 mi NW 13.8 mph 25.3 mph N/A   Scattered Clouds
3:53 PM 60.4 °F - 27.7 °F 29% 29.66 in 10.0 mi NW 17.3 mph 20.7 mph N/A   Scattered Clouds
4:13 PM 60.1 °F - 27.3 °F 29% 29.66 in 10.0 mi NNW 9.2 mph 17.3 mph N/A   Mostly Cloudy
4:33 PM 60.1 °F - 26.4 °F 28% 29.66 in 10.0 mi NW 15.0 mph 21.9 mph N/A   Mostly Cloudy
4:53 PM 60.4 °F - 27.7 °F 29% 29.67 in 10.0 mi NNW 12.7 mph 19.6 mph N/A   Mostly Cloudy
5:13 PM 59.4 °F - 28.9 °F 31% 29.67 in 10.0 mi NNW 12.7 mph - N/A   Overcast
5:34 PM 56.3 °F - 29.1 °F 35% 29.69 in 10.0 mi NW 12.7 mph - N/A   Overcast
5:54 PM 58.1 °F - 29.8 °F 34% 29.69 in 10.0 mi NNW 10.4 mph 17.3 mph N/A   Overcast
6:14 PM 56.5 °F - 29.3 °F 35% 29.70 in 10.0 mi North 15.0 mph 21.9 mph N/A   Overcast
6:34 PM 55.8 °F - 31.5 °F 40% 29.71 in 10.0 mi NNW 16.1 mph 20.7 mph N/A   Overcast
6:54 PM 55.9 °F - 30.6 °F 38% 29.72 in 10.0 mi NNW 13.8 mph 20.7 mph N/A   Mostly Cloudy
7:14 PM 54.3 °F - 30.6 °F 40% 29.73 in 10.0 mi NNW 10.4 mph 21.9 mph N/A   Scattered Clouds
7:34 PM 53.1 °F - 29.7 °F 41% 29.74 in 10.0 mi NNW 12.7 mph 21.9 mph N/A   Clear
7:54 PM 51.6 °F - 29.7 °F 43% 29.75 in 10.0 mi NNW 11.5 mph 17.3 mph N/A   Clear
8:15 PM 50.0 °F - 30.7 °F 48% 29.77 in 10.0 mi NNW 11.5 mph - N/A   Clear
8:35 PM 48.7 °F - 31.1 °F 51% 29.78 in 10.0 mi NNW 12.7 mph 17.3 mph N/A   Clear
8:55 PM 47.8 °F - 30.2 °F 50% 29.80 in 10.0 mi NNW 10.4 mph - N/A   Clear
9:15 PM 46.9 °F - 29.8 °F 51% 29.81 in 10.0 mi NNW 11.5 mph - N/A   Clear
9:35 PM 46.0 °F 41.0 °F 29.8 °F 53% 29.82 in 10.0 mi NNW 10.4 mph - N/A   Clear
9:50 PM 45.9 °F 40.0 °F 30.4 °F 55% 29.83 in 10.0 mi NNW 12.7 mph 17.3 mph N/A   Clear
10:10 PM 44.6 °F 39.2 °F 30.9 °F 59% 29.83 in 10.0 mi NNW 10.4 mph - N/A   Clear
10:30 PM 43.9 °F 38.3 °F 31.1 °F 61% 29.84 in 10.0 mi NNW 10.4 mph - N/A   Clear
10:51 PM 43.0 °F 37.2 °F 31.1 °F 63% 29.84 in 10.0 mi NNW 10.4 mph 16.1 mph N/A   Clear
11:11 PM 42.3 °F 36.8 °F 30.4 °F 63% 29.84 in 10.0 mi NNW 9.2 mph - N/A   Clear
11:31 PM 41.5 °F 35.9 °F 30.7 °F 65% 29.84 in 10.0 mi NNW 9.2 mph - N/A   Clear
11:51 PM 40.1 °F 34.7 °F 30.7 °F 69% 29.85 in 10.0 mi NNW 8.1 mph - N/A   Clear